sat.trackr.live / text

‹ back to catalog

STARLINK-5119

NORAD 53986 · 2022-125Y

PAYLOAD ACTIVE UNKNOWN

§ Identity

Operator
Country
US
Launch date
2022-10-05
Launch site
AFWTR
Launch vehicle
Mass (kg)
RCS (m²)

Purposes: comms

External: N2YO · Heavens-Above · Gunter

§ Orbital elements

Epoch: 2026-09-20T20:19:36.182784Z

Period
94.01 min
Inclination
53.1620°
Eccentricity
0.0001070
Mean motion
15.31704063 rev/d
Perigee alt
470.0 km
Apogee alt
471.5 km
Semi-major
6,848.9 km
B*
5.6647e-6
RAAN
33.4516°
Arg perigee
80.9446°
Mean anomaly
279.1677°
Rev number
21,925

§ Raw data

STARLINK-51191 53986U 22125Y   26263.84694656 -.00000189  00000+0  56647-5 0  99912 53986  53.1620  33.4516 0001070  80.9446 279.1677 15.31704063219259

JSON: /api/v1/satellites/53986 · /tle

For live sub-satellite position, see the globe view (requires WebGL).

§ Visibility from observer

Set your observer location to see the next 7 days of passes ≥ 10°. The values pass through the URL so the page stays shareable.

No JS? Fill the form by hand. The geolocation button needs JavaScript.